Terminal Aerodrome Forecast
Issued by NWS Central Illinois

Home | Current Version | Previous Version | Text Only | Print | Product List | Glossary On
Versions: 1 2 3 4 5 6 7 8 9 10 11 12 13 14 15 16 17 18 19 20 21 22 23 24 25 26 27 28
000
FTUS43 KILX 190538
TAFSPI
TAF
KSPI 190538Z 1906/2006 16006KT 6SM BR BKN200
     FM190700 16005KT 5SM BR BKN035
     FM191600 12006KT P6SM VCSH OVC025
     FM191800 11007KT 3SM -SHRA BR OVC015
     FM192300 09007KT 3SM -SHRA BR OVC003=

USA.gov is the U.S. government's official web portal to all federal, state and local government web resources and services.